Weather Roundup
Issued by NWS Springfield, MO

Home | Current Version | Previous Version | Text Only | Print | Product List | Glossary On
Versions: 1 2 3 4 5 6 7 8 9 10 11 12 13 14 15 16 17 18 19 20 21 22 23 24 25 26 27 28 29 30 31 32 33 34 35 36 37 38 39 40 41 42 43 44 45 46 47 48 49 50
000
NZUS99 KSGF 191607
HRRSGF

HOURLY WEATHER
NATIONAL WEATHER SERVICE SPRINGFIELD MO
1100 AM CDT SUN APR 19 2015

......SGF CWA......

CITY           SKY/WX    TMP DP  RH WIND       PRES   REMARKS
SPRINGFIELD    CLOUDY    64  55  72 W7        29.69R
JOPLIN         CLOUDY    61  54  77 W18G25    29.78R
WEST PLAINS    CLOUDY    66  59  78 NW10      29.65F
ROLLA          RAIN      61  59  93 W5        29.65S FOG
OSAGE BEACH    CLOUDY    63  59  88 CALM      29.65F
BRANSON        PTSUNNY   59  54  82 W6        29.72R

......SURROUNDING SGF CWA......

CITY           SKY/WX    TMP DP  RH WIND       PRES   REMARKS
CHANUTE        PTSUNNY   61  55  81 W12       29.78S
PARSONS        LGT RAIN  58  55  90 W8        29.79F
COFFEYVILLE    LGT RAIN  58  55  90 NW14      29.76F
EMPORIA        CLOUDY    59  52  77 W6        29.76S
GROVE OK       CLOUDY    63  55  77 NW13      29.78R
ROGERS AR      CLOUDY    63  54  72 SW3       29.75R
SILOAM SPRINGS PTSUNNY   64  52  63 W6        29.77R
HARRISON AR    CLOUDY    63  55  75 W9        29.71S
NEAR YELLVILLE CLOUDY    66 N/A N/A SW9       29.66S

......KANSAS AND MISSOURI......

CITY           SKY/WX    TMP DP  RH WIND       PRES   REMARKS
KANSAS CTY INT PTSUNNY   62  56  80 NW6       29.69F
DOWNTOWN KC    PTSUNNY   63  53  70 W13       29.69S
COLUMBIA       LGT RAIN  60  59  96 W5        29.66F FOG
SEDALIA        CLOUDY    63  59  87 NW6       29.68R
ST JOSEPH      PTSUNNY   60  55  83 NW10      29.69F
ST LOUIS       LGT RAIN  65  58  78 SE3       29.63F
SPIRIT OF STL  LGT RAIN  65  60  84 CALM      29.61F
KIRKSVILLE     MOSUNNY   69  59  70 NE9       29.64F
WICHITA        CLOUDY    59  51  75 N7        29.77R
TOPEKA         CLOUDY    62  53  72 W10       29.73R
OLATHE         CLOUDY    62  53  72 N12       29.69F

......TENNESSEE......

CITY           SKY/WX    TMP DP  RH WIND       PRES   REMARKS
MEMPHIS        PTSUNNY   70  63  78 W8        29.66R
NASHVILLE      CLOUDY    70  66  87 SW8       29.64F

......ARKANSAS.......

CITY           SKY/WX    TMP DP  RH WIND       PRES   REMARKS
FAYETTEVILLE   PTSUNNY   64  55  72 CALM      29.74S
FT SMITH       SUNNY     69  53  56 SW3       29.73S
LITTLE ROCK    CLOUDY    69  61  75 NW5       29.69F

......OKLAHOMA.......

CITY           SKY/WX    TMP DP  RH WIND       PRES   REMARKS
TULSA          PTSUNNY   65  56  72 NW12      29.76S
PONCA CITY     CLOUDY    61  52  72 NW10      29.74F
MCALESTER      SUNNY     69  57  65 VRB3      29.74S
OKLAHOMA CITY  CLOUDY    62  48  60 NE8       29.76S

......IOWA............

CITY           SKY/WX    TMP DP  RH WIND       PRES   REMARKS
DES MOINES     LGT RAIN  62  58  86 E3        29.67F
QUAD CITIES    MOSUNNY   68  46  45 E9        29.68F

......ILLINOIS........

CITY           SKY/WX    TMP DP  RH WIND       PRES   REMARKS
QUINCY         CLOUDY    69  52  54 SW3       29.63F
CHICAGO        PTSUNNY   64  36  35 E13       29.74F




USA.gov is the U.S. government's official web portal to all federal, state and local government web resources and services.